星链-4477 (STARLINK-4477 )

导读 | 豆包AI

STARLINK-4477是美国SpaceX公司星链(Starlink)星座中的一颗互联网通信卫星,于2022年8月19日发射升空。星链项目旨在构建全球覆盖的低轨卫星互联网,提供低成本、高性能的天基互联网服务。 作为星链星座的组成部分,该卫星运行在近地轨道,通过卫星星座组网,为全球尤其是偏远地区提供宽带互联网接入服务,助力实现全球网络覆盖,推动太空互联网基础设施建设。

Basic Information
目录编号:
53546
目录名称:
STARLINK-4477
国际标识:
2022-101V
轨道中心:
EARTH
卫星名称:
星链-4477
卫星全名:
星链-4477 (STARLINK-4477 )
卫星状态:
在轨 (已飞行1350 天)
发射日期:
2022-08-19 UTC
国别 :
美国 (US)
星等 :
--
Orbit Information
数据来源 国际轨道数据 AOE轨道数据
星历时间 2026-04-30T12:08:30+0800
15小时前
查看轨道信息
2026-04-30T09:00:00+0800
18小时前
查看轨道信息
半长轴 6917.85km 6917.883km
偏心率 0.0001012 0.0001535
轨道倾角 53.218° 53.215°
近地点辐角 76.799° 48.278°
升交点赤经 182.536° 183.124°
平近点角 283.311° 320.310°
近地点 539.012km 538.684km
远地点 540.414km 540.808km
周期 95.437分钟 95.438分钟
每日圈数 15.0885 15.088394
Detailed Information
固有亮度:
5
最大亮度:
2.5
卫星平台:
Starlink v1.5
覆盖范围:
全球
运营商:
太空探索技术公司
运营商所在国:
美国
制造商(研发单位):
太空探索技术公司
制造商所在国:
美国
使用方式:
暂无
Satellite Introduction
星链(Starlink)计划是由太空探索技术公司(SpaceX)提出的一个巨型低轨卫星互联网星座项目,计划在2019年至2024年间在太空搭建由约1.2万颗卫星组成的“星链”网络,其中1584颗将部署在地球上空550千米处的近地轨道,并从2020年开始工作。该卫星仍在工作。
2D Orbit Map
3D Orbit Map
Orbit Altitude Analysis Chart
Orbit Inclination Analysis Chart
Orbit Comprehensive Analysis Chart
View Comprehensive Chart